Location: Newark
(46.9000°N, 28.3500°E)
Time: 19:34:16
(UTC+00:00)

Explorer 7 - Pass Details

Date: 29 August 2019
Orbit: 485 x 680 km, 50.3° (Epoch: 18 October)

Event Time Altitude Azimuth Distance (km) Brightness Sun altitude
Rises 05:03:03 0° 223° (SW) 3,024 10.2 16.3°
Reaches altitude 10° 05:05:30 10° 217° (SW) 2,111 9.5 16.7°
Maximum altitude 05:10:10 45° 146° (SE) 913 8.6 17.5°
Drops below altitude 10° 05:14:44 10° 74° (ENE) 2,072 11.3 18.3°
Sets 05:17:07 0° 68° (ENE) 2,961 11.6 18.7°
